When you browse on this site, cookies collect data to enhance your experience and personalize the content and advertising you see.
Visit our Privacy Policy to learn more. By continuing to use the site, you agree to this use of cookies and data.
  • In Österreich
  • Länderverzeichnis
  • Für 7 Tage
  • Wassertemperatur
  • Wetterkarte
  • News
  • Widgets
  • user-avatar
    Anmelden

    Stündliche Wetter Sewan

    Heute, 27 Mai, Mittwoch

    Zeit Temperatur Niederschläge Wind Luftdruck Luftfeuchtigkeit
    00:00 +14°C° 0 mm 2 m/S 645 mmHg 59%
    01:00 +14°C° 0 mm 2 m/S 644 mmHg 61%
    02:00 +13°C° 0 mm 2 m/S 644 mmHg 62%
    03:00 +13°C° 0 mm 2 m/S 644 mmHg 63%
    04:00 +14°C° 0 mm 2 m/S 645 mmHg 65%
    05:00 +14°C° 0 mm 2 m/S 645 mmHg 66%
    06:00 +15°C° 0 mm 2 m/S 646 mmHg 68%
    07:00 +17°C° 0 mm 2 m/S 646 mmHg 62%
    08:00 +19°C° 0 mm 2 m/S 647 mmHg 55%
    09:00 +22°C° 0 mm 1 m/S 647 mmHg 50%
    10:00 +23°C° 0 mm 2 m/S 647 mmHg 47%
    11:00 +24°C° 0 mm 2 m/S 647 mmHg 44%
    12:00 +24°C° 0 mm 2 m/S 647 mmHg 42%
    13:00 +25°C° 0 mm 2 m/S 647 mmHg 40%
    14:00 +25°C° 0 mm 2 m/S 647 mmHg 38%
    15:00 +26°C° 0 mm 2 m/S 646 mmHg 36%
    16:00 +25°C° 0 mm 1 m/S 646 mmHg 42%
    17:00 +24°C° 0 mm 1 m/S 646 mmHg 47%
    18:00 +24°C° 0 mm 1 m/S 646 mmHg 53%
    19:00 +22°C° 0 mm 1 m/S 646 mmHg 55%
    20:00 +19°C° 0 mm 2 m/S 645 mmHg 58%
    21:00 +17°C° 0 mm 3 m/S 645 mmHg 60%
    22:00 +17°C° 0 mm 2 m/S 644 mmHg 58%
    23:00 +17°C° 0 mm 2 m/S 644 mmHg 55%

    Morgen, 28 Mai, Donnerstag

    Zeit Temperatur Niederschläge Wind Luftdruck Luftfeuchtigkeit
    00:00 +16°C° 0 mm 2 m/S 644 mmHg 53%
    01:00 +16°C° 0 mm 2 m/S 644 mmHg 53%
    02:00 +16°C° 0 mm 2 m/S 644 mmHg 53%
    03:00 +15°C° 0 mm 1 m/S 644 mmHg 53%
    04:00 +16°C° 0 mm 1 m/S 644 mmHg 54%
    05:00 +18°C° 0 mm 1 m/S 644 mmHg 55%
    06:00 +18°C° 0 mm 1 m/S 644 mmHg 57%
    07:00 +20°C° 0 mm 1 m/S 645 mmHg 52%
    08:00 +22°C° 0 mm 1 m/S 645 mmHg 46%
    09:00 +24°C° 0 mm 1 m/S 645 mmHg 41%
    10:00 +25°C° 0 mm 1 m/S 645 mmHg 39%
    11:00 +26°C° 0 mm 2 m/S 645 mmHg 38%
    12:00 +26°C° 0 mm 2 m/S 645 mmHg 36%
    13:00 +27°C° 0 mm 2 m/S 645 mmHg 34%
    14:00 +27°C° 0 mm 2 m/S 644 mmHg 33%
    15:00 +28°C° 0 mm 2 m/S 644 mmHg 31%
    16:00 +27°C° 0 mm 2 m/S 644 mmHg 35%
    17:00 +26°C° 0 mm 1 m/S 644 mmHg 39%
    18:00 +24°C° 0 mm 0 m/S 643 mmHg 42%
    19:00 +24°C° 0.1 mm 1 m/S 643 mmHg 45%
    20:00 +21°C° 0.1 mm 2 m/S 643 mmHg 48%
    21:00 +19°C° 0.1 mm 3 m/S 642 mmHg 50%
    22:00 +18°C° 0 mm 2 m/S 642 mmHg 51%
    23:00 +18°C° 0 mm 2 m/S 642 mmHg 52%

    übermorgen, 29 Mai, Freitag

    Zeit Temperatur Niederschläge Wind Luftdruck Luftfeuchtigkeit
    00:00 +17°C° 0 mm 2 m/S 642 mmHg 53%
    01:00 +17°C° 0.2 mm 2 m/S 642 mmHg 55%
    02:00 +18°C° 0.2 mm 1 m/S 641 mmHg 56%
    03:00 +18°C° 0.2 mm 1 m/S 641 mmHg 57%
    04:00 +18°C° 0 mm 1 m/S 641 mmHg 57%
    05:00 +19°C° 0 mm 1 m/S 641 mmHg 57%
    06:00 +18°C° 0 mm 2 m/S 641 mmHg 57%
    07:00 +21°C° 0 mm 1 m/S 641 mmHg 51%
    08:00 +23°C° 0 mm 1 m/S 641 mmHg 46%
    09:00 +25°C° 0 mm 1 m/S 641 mmHg 40%
    10:00 +26°C° 0 mm 3 m/S 641 mmHg 37%
    11:00 +27°C° 0 mm 4 m/S 641 mmHg 35%
    12:00 +29°C° 0 mm 5 m/S 641 mmHg 33%
    13:00 +29°C° 0 mm 5 m/S 640 mmHg 33%
    14:00 +29°C° 0 mm 6 m/S 640 mmHg 34%
    15:00 +29°C° 0 mm 6 m/S 640 mmHg 35%
    16:00 +28°C° 0 mm 5 m/S 639 mmHg 38%
    17:00 +26°C° 0 mm 5 m/S 639 mmHg 41%
    18:00 +25°C° 0 mm 4 m/S 639 mmHg 44%
    19:00 +22°C° 0 mm 3 m/S 639 mmHg 44%
    20:00 +20°C° 0 mm 3 m/S 639 mmHg 43%
    21:00 +18°C° 0 mm 2 m/S 639 mmHg 43%
    22:00 +17°C° 0 mm 2 m/S 639 mmHg 42%
    23:00 +16°C° 0 mm 2 m/S 639 mmHg 42%

    30 Mai, Samstag

    Zeit Temperatur Niederschläge Wind Luftdruck Luftfeuchtigkeit
    00:00 +15°C° 0 mm 2 m/S 639 mmHg 42%
    01:00 +15°C° 0 mm 2 m/S 639 mmHg 42%
    02:00 +14°C° 0 mm 2 m/S 639 mmHg 43%
    03:00 +14°C° 0 mm 2 m/S 638 mmHg 44%
    04:00 +14°C° 0 mm 2 m/S 639 mmHg 44%
    05:00 +14°C° 0 mm 1 m/S 639 mmHg 44%
    06:00 +14°C° 0 mm 1 m/S 640 mmHg 45%
    07:00 +16°C° 0 mm 2 m/S 640 mmHg 39%
    08:00 +18°C° 0 mm 2 m/S 641 mmHg 34%
    09:00 +19°C° 0 mm 2 m/S 641 mmHg 28%
    10:00 +20°C° 0 mm 3 m/S 641 mmHg 27%
    11:00 +21°C° 0 mm 3 m/S 641 mmHg 26%
    12:00 +22°C° 0 mm 3 m/S 642 mmHg 25%
    13:00 +22°C° 0 mm 3 m/S 641 mmHg 26%
    14:00 +22°C° 0 mm 3 m/S 641 mmHg 26%
    15:00 +24°C° 0 mm 3 m/S 641 mmHg 27%
    16:00 +23°C° 0 mm 2 m/S 641 mmHg 31%
    17:00 +23°C° 0 mm 2 m/S 641 mmHg 35%
    18:00 +22°C° 0 mm 1 m/S 641 mmHg 40%
    19:00 +20°C° 0 mm 1 m/S 641 mmHg 39%
    20:00 +17°C° 0 mm 2 m/S 641 mmHg 39%
    21:00 +16°C° 0 mm 2 m/S 641 mmHg 39%
    22:00 +15°C° 0 mm 2 m/S 641 mmHg 40%
    23:00 +14°C° 0 mm 2 m/S 641 mmHg 42%

    31 Mai, Sonntag

    Zeit Temperatur Niederschläge Wind Luftdruck Luftfeuchtigkeit
    00:00 +14°C° 0 mm 2 m/S 641 mmHg 44%
    01:00 +13°C° 0 mm 2 m/S 641 mmHg 44%
    02:00 +13°C° 0 mm 2 m/S 641 mmHg 44%
    03:00 +13°C° 0 mm 2 m/S 641 mmHg 44%
    04:00 +13°C° 0 mm 1 m/S 641 mmHg 47%
    05:00 +14°C° 0 mm 1 m/S 642 mmHg 49%
    06:00 +15°C° 0 mm 1 m/S 643 mmHg 51%
    07:00 +16°C° 0 mm 1 m/S 643 mmHg 46%
    08:00 +19°C° 0 mm 1 m/S 643 mmHg 41%
    09:00 +19°C° 0 mm 2 m/S 644 mmHg 36%
    10:00 +20°C° 0 mm 2 m/S 644 mmHg 34%
    11:00 +21°C° 0 mm 2 m/S 644 mmHg 32%
    12:00 +22°C° 0 mm 3 m/S 644 mmHg 29%
    13:00 +23°C° 0 mm 2 m/S 644 mmHg 28%
    14:00 +24°C° 0 mm 2 m/S 644 mmHg 28%
    15:00 +24°C° 0 mm 2 m/S 643 mmHg 27%
    16:00 +24°C° 0 mm 1 m/S 643 mmHg 32%
    17:00 +23°C° 0 mm 1 m/S 643 mmHg 37%
    18:00 +23°C° 0 mm 1 m/S 643 mmHg 42%
    19:00 +20°C° 0 mm 2 m/S 643 mmHg 49%
    20:00 +17°C° 0 mm 2 m/S 642 mmHg 56%
    21:00 +14°C° 0 mm 3 m/S 642 mmHg 63%
    22:00 +14°C° 0 mm 3 m/S 642 mmHg 61%
    23:00 +14°C° 0 mm 3 m/S 642 mmHg 58%

    1 Juni, Montag

    Zeit Temperatur Niederschläge Wind Luftdruck Luftfeuchtigkeit
    00:00 +13°C° 0 mm 3 m/S 642 mmHg 56%
    01:00 +13°C° 0 mm 3 m/S 642 mmHg 56%
    02:00 +14°C° 0 mm 2 m/S 641 mmHg 55%
    03:00 +13°C° 0 mm 2 m/S 641 mmHg 55%
    04:00 +14°C° 0 mm 2 m/S 641 mmHg 57%
    05:00 +15°C° 0 mm 2 m/S 642 mmHg 58%
    06:00 +15°C° 0 mm 2 m/S 642 mmHg 60%
    07:00 +17°C° 0 mm 2 m/S 642 mmHg 54%
    08:00 +19°C° 0 mm 2 m/S 643 mmHg 48%
    09:00 +21°C° 0 mm 2 m/S 643 mmHg 42%
    10:00 +22°C° 0 mm 3 m/S 643 mmHg 41%
    11:00 +24°C° 0 mm 3 m/S 643 mmHg 39%
    12:00 +23°C° 0 mm 4 m/S 643 mmHg 37%
    13:00 +25°C° 0 mm 4 m/S 642 mmHg 36%
    14:00 +25°C° 0 mm 4 m/S 642 mmHg 34%
    15:00 +26°C° 0 mm 4 m/S 642 mmHg 33%
    16:00 +25°C° 0 mm 4 m/S 642 mmHg 36%
    17:00 +23°C° 0 mm 4 m/S 641 mmHg 39%
    18:00 +23°C° 0 mm 4 m/S 641 mmHg 42%
    19:00 +21°C° 0 mm 3 m/S 641 mmHg 42%
    20:00 +19°C° 0 mm 3 m/S 641 mmHg 41%
    21:00 +17°C° 0 mm 2 m/S 640 mmHg 41%
    22:00 +17°C° 0 mm 2 m/S 640 mmHg 41%
    23:00 +16°C° 0 mm 2 m/S 640 mmHg 42%
    Mehr zeigen